Buffalo, MN

9:08 PM CST on December 14, 2019 (GMT -0600)
Buffalo

Weather History for KCFE - October, 2019

Change the Weather History Date:

Sunday, October 13, 2019

  Actual Average (WUND) Record (WUND)
Temperature  
Mean Temperature 38 °F -  
Max Temperature 44 °F - - (-1)
Min Temperature 33 °F - - (-1)
Degree Days  
Heating Degree Days 28    
Moisture  
Dew Point 32 °F    
Average Humidity 83    
Maximum Humidity 92    
Minimum Humidity 58    
Precipitation  
Precipitation 0.00 in - - ()
Sea Level Pressure  
Sea Level Pressure 29.78 in    
Wind  
Wind Speed - (North)    
Max Wind Speed -    
Max Gust Speed -    
Visibility 10 miles    
Events Rain , Snow    
Averages and records for this station are not official NWS values.
T = Trace of Precipitation, MM = Missing Value Source: NWS Daily Summary

Daily Weather History Graph

Daily Weather History Graph

Search for Another Location

Airport or City:

Astronomy

Oct. 13, 2019 Rise Set
Actual Time 7:28 AM CDT 6:34 PM CDT
Civil Twilight 6:58 AM CDT 7:03 PM CDT
Nautical Twilight 6:24 AM CDT 7:37 PM CDT
Astronomical Twilight 5:50 AM CDT 8:11 PM CDT
Moon 6:59 PM CDT (10/13) 6:59 AM CDT (10/13)
Length of Visible Light 12h 04m
Length of Day
11h 05m
Full, 100% of the Moon is Illuminated
Oct 13
Full
Oct 13
Full
Oct 21
Last Quarter
Oct 27
New
Nov 4
First Quarter

Hourly Weather History & Observations

Time (CDT) Temp. Dew Point Humidity Pressure Visibility Wind Dir Wind Speed Gust Speed Precip Events Conditions
12:15 AM 34.3 °F 31.8 °F 90% 29.64 in 10.0 mi North - - N/A Rain Light Rain
12:35 AM 34.3 °F 31.8 °F 90% 29.64 in 10.0 mi North - - N/A Rain Light Rain
12:36 AM 34.3 °F 31.8 °F 90% 29.64 in 10.0 mi North - - N/A Rain Light Rain
12:55 AM 34.7 °F 31.6 °F 89% 29.65 in 10.0 mi North - - N/A Rain Light Rain
1:15 AM 34.7 °F 31.6 °F 89% 29.65 in 10.0 mi North - - N/A Rain Light Rain
1:16 AM 34.7 °F 31.6 °F 89% 29.65 in 10.0 mi North - - N/A Rain Light Rain
1:36 AM 34.3 °F 31.6 °F 90% 29.65 in 10.0 mi North - - N/A Rain Light Rain
1:55 AM 34.2 °F 31.6 °F 90% 29.65 in 10.0 mi North - - N/A Rain Light Rain
2:15 AM 34.0 °F 31.8 °F 92% 29.66 in 10.0 mi North - - N/A Rain Light Rain
2:16 AM 34.0 °F 31.8 °F 92% 29.66 in 10.0 mi North - - N/A Rain Light Rain
2:35 AM 34.2 °F 31.8 °F 91% 29.66 in 7.0 mi North - - N/A   Overcast
2:55 AM 34.3 °F 31.8 °F 90% 29.66 in 10.0 mi North - - N/A   Overcast
3:15 AM 34.7 °F 31.8 °F 89% 29.67 in 10.0 mi North - - N/A   Overcast
3:16 AM 34.7 °F 31.8 °F 89% 29.67 in 10.0 mi North - - N/A   Overcast
3:35 AM 34.7 °F 31.6 °F 89% 29.67 in 10.0 mi North - - N/A   Overcast
3:55 AM 34.7 °F 31.6 °F 89% 29.67 in 10.0 mi North - - N/A   Overcast
4:15 AM 34.7 °F 31.8 °F 89% 29.67 in 10.0 mi North - - N/A   Overcast
4:35 AM 34.7 °F 32.0 °F 90% 29.67 in 10.0 mi North - - N/A   Overcast
4:55 AM 34.7 °F 32.0 °F 90% 29.68 in 7.0 mi North - - N/A Rain Rain
4:56 AM 34.7 °F 32.0 °F 90% 29.68 in 5.0 mi North - - N/A Rain Rain
5:15 AM 34.3 °F 32.0 °F 91% 29.68 in 10.0 mi North - - N/A Rain Rain
5:35 AM 34.3 °F 32.0 °F 91% 29.69 in 10.0 mi North - - N/A Rain Light Rain
5:55 AM 34.7 °F 32.0 °F 90% 29.69 in 10.0 mi North - - N/A Rain Light Rain
6:15 AM 34.7 °F 32.0 °F 90% 29.69 in 10.0 mi North - - N/A   Overcast
6:16 AM 34.7 °F 32.0 °F 90% 29.69 in 10.0 mi North - - N/A   Overcast
6:35 AM 34.7 °F 32.0 °F 90% 29.70 in 10.0 mi North - - N/A   Overcast
6:55 AM 34.7 °F 32.0 °F 90% 29.70 in 10.0 mi North - - N/A Snow Light Snow
7:15 AM 34.7 °F 32.0 °F 90% 29.70 in 10.0 mi North - - N/A Rain Light Rain
7:35 AM 34.7 °F 32.0 °F 90% 29.70 in 10.0 mi North - - N/A Rain Rain
7:36 AM 34.7 °F 32.0 °F 90% 29.70 in 10.0 mi North - - N/A Rain Rain
7:55 AM 34.7 °F 32.0 °F 90% 29.71 in 10.0 mi North - - N/A   Light Drizzle
8:15 AM 34.7 °F 32.0 °F 90% 29.72 in 10.0 mi North - - N/A   Overcast
8:35 AM 35.2 °F 32.0 °F 88% 29.72 in 10.0 mi North - - N/A   Overcast
8:36 AM 35.2 °F 32.0 °F 88% 29.72 in 10.0 mi North - - N/A   Overcast
8:55 AM 35.6 °F 32.0 °F 87% 29.72 in 10.0 mi North - - N/A   Overcast
8:56 AM 35.6 °F 32.0 °F 87% 29.72 in 10.0 mi North - - N/A   Overcast
9:16 AM 35.6 °F 31.8 °F 86% 29.72 in 10.0 mi North - - N/A   Overcast
9:35 AM 35.8 °F 31.5 °F 84% 29.73 in 10.0 mi North - - N/A   Overcast
9:36 AM 35.8 °F 31.5 °F 84% 29.73 in 10.0 mi North - - N/A   Overcast
9:55 AM 36.0 °F 31.1 °F 82% 29.74 in 10.0 mi North - - N/A   Overcast
10:15 AM 36.5 °F 31.6 °F 83% 29.75 in 10.0 mi North - - N/A   Overcast
10:35 AM 36.5 °F 31.5 °F 82% 29.76 in 10.0 mi North - - N/A   Overcast
10:55 AM 36.3 °F 32.0 °F 84% 29.76 in 10.0 mi North - - N/A   Overcast
11:15 AM 37.6 °F 32.0 °F 80% 29.76 in 10.0 mi North - - N/A   Overcast
11:35 AM 37.8 °F 31.6 °F 79% 29.76 in 10.0 mi North - - N/A   Overcast
11:36 AM 37.9 °F 31.6 °F 78% 29.76 in 10.0 mi North - - N/A   Overcast
11:55 AM 39.2 °F 32.0 °F 75% 29.77 in 10.0 mi North - - N/A   Overcast
12:15 PM 39.2 °F 31.1 °F 73% 29.78 in 10.0 mi North - - N/A   Overcast
12:35 PM 39.6 °F 31.5 °F 73% 29.78 in 10.0 mi North - - N/A   Overcast
12:36 PM 39.6 °F 31.5 °F 73% 29.78 in 10.0 mi North - - N/A   Overcast
12:55 PM 39.2 °F 31.5 °F 74% 29.78 in 10.0 mi North - - N/A   Overcast
12:56 PM 39.2 °F 31.5 °F 74% 29.78 in 10.0 mi North - - N/A   Overcast
1:15 PM 39.7 °F 31.5 °F 72% 29.78 in 10.0 mi North - - N/A   Overcast
1:35 PM 39.9 °F 31.3 °F 71% 29.79 in 10.0 mi North - - N/A   Overcast
1:55 PM 40.1 °F 31.8 °F 72% 29.79 in 10.0 mi North - - N/A   Overcast
2:15 PM 40.3 °F 31.6 °F 71% 29.80 in 10.0 mi North - - N/A   Overcast
2:35 PM 40.5 °F 32.4 °F 73% 29.80 in 10.0 mi North - - N/A   Overcast
2:36 PM 40.3 °F 32.2 °F 73% 29.80 in 10.0 mi North - - N/A   Overcast
2:55 PM 40.5 °F 33.3 °F 75% 29.80 in 7.0 mi North - - N/A   Mostly Cloudy
3:35 PM 42.8 °F 31.8 °F 65% 29.81 in 10.0 mi North - - N/A   Mostly Cloudy
3:36 PM 42.8 °F 31.8 °F 65% 29.81 in 10.0 mi North - - N/A   Mostly Cloudy
3:55 PM 42.1 °F 32.0 °F 67% 29.82 in 10.0 mi North - - N/A   Scattered Clouds
3:56 PM 41.9 °F 32.0 °F 68% 29.82 in 10.0 mi North - - N/A   Scattered Clouds
4:15 PM 41.4 °F 30.6 °F 65% 29.82 in 10.0 mi North - - N/A   Scattered Clouds
4:55 PM 41.5 °F 30.4 °F 65% 29.84 in 10.0 mi North - - N/A   Overcast
5:15 PM 42.6 °F 28.9 °F 58% 29.84 in 10.0 mi North - - N/A   Overcast
5:35 PM 41.9 °F 29.3 °F 61% 29.85 in 10.0 mi North - - N/A   Mostly Cloudy
5:55 PM 39.6 °F 29.3 °F 67% 29.86 in 10.0 mi North - - N/A   Scattered Clouds
6:15 PM 39.2 °F 29.8 °F 69% 29.86 in 10.0 mi North - - N/A   Clear
6:16 PM 39.0 °F 29.8 °F 70% 29.86 in 10.0 mi North - - N/A   Clear
6:35 PM 38.3 °F 30.2 °F 73% 29.87 in 10.0 mi North - - N/A   Clear
6:55 PM 38.3 °F 30.9 °F 75% 29.88 in 10.0 mi North - - N/A   Clear
7:15 PM 38.3 °F 31.1 °F 75% 29.89 in 10.0 mi North - - N/A   Clear
7:35 PM 37.4 °F 31.6 °F 80% 29.89 in 10.0 mi North - - N/A   Clear
7:55 PM 36.7 °F 32.0 °F 83% 29.90 in 10.0 mi North - - N/A   Clear
7:56 PM 36.7 °F 32.0 °F 83% 29.90 in 10.0 mi North - - N/A   Clear
8:15 PM 36.0 °F 32.0 °F 86% 29.91 in 10.0 mi North - - N/A   Clear
8:35 PM 35.6 °F 32.0 °F 87% 29.91 in 10.0 mi North - - N/A   Clear
8:55 PM 35.1 °F 32.0 °F 89% 29.92 in 10.0 mi North - - N/A   Clear
9:15 PM 35.1 °F 32.0 °F 89% 29.93 in 10.0 mi North - - N/A   Clear
9:16 PM 35.1 °F 32.0 °F 89% 29.93 in 10.0 mi North - - N/A   Clear
9:35 PM 35.4 °F 32.0 °F 87% 29.94 in 10.0 mi North - - N/A   Clear
9:55 PM 34.7 °F 31.8 °F 89% 29.94 in 10.0 mi North - - N/A   Clear
10:15 PM 33.8 °F 31.8 °F 92% 29.94 in 10.0 mi North - - N/A   Clear
10:16 PM 34.0 °F 31.8 °F 92% 29.94 in 10.0 mi North - - N/A   Clear
10:35 PM 34.3 °F 32.0 °F 91% 29.95 in 10.0 mi North - - N/A   Clear
10:55 PM 34.7 °F 32.0 °F 90% 29.94 in 10.0 mi North - - N/A   Clear
10:56 PM 34.7 °F 32.0 °F 90% 29.94 in 10.0 mi North - - N/A   Clear
11:15 PM 35.1 °F 32.0 °F 89% 29.94 in 10.0 mi North - - N/A   Clear
11:35 PM 35.6 °F 32.0 °F 87% 29.95 in 10.0 mi North - - N/A   Clear
11:36 PM 35.6 °F 32.0 °F 87% 29.95 in 10.0 mi North - - N/A   Clear
11:55 PM 35.6 °F 32.0 °F 87% 29.95 in 10.0 mi North - - N/A   Clear